Ft Lauderdale, FL

7:05 PM EDT on September 25, 2017 (GMT -0400)
Fort Lauderdale-Hollywood International

Weather History for KFLL - December, 2010

Change the Weather History Date:

Wednesday, December 29, 2010

  Actual Average Record
Temperature  
Mean Temperature 58 °F 69 °F  
Max Temperature 69 °F 77 °F 86 °F (1934)
Min Temperature 47 °F 62 °F 36 °F (1928)
Degree Days  
Heating Degree Days 7 1  
Month to date heating degree days 172 24  
Since 1 July heating degree days 179 26  
Cooling Degree Days 0 6  
Month to date cooling degree days 21 206  
Year to date cooling degree days 4199 4719  
Growing Degree Days 8 (Base 50)    
Moisture  
Dew Point 41 °F    
Average Humidity 49    
Maximum Humidity 58    
Minimum Humidity 40    
Precipitation  
Precipitation 0.00 in 0.05 in 1.37 in (1939)
Month to date precipitation 1.05 2.34  
Year to date precipitation 59.44 62.06  
Snow  
Snow 0.00 in - - ()
Month to date snowfall 0.0  
Since 1 July snowfall 0.0  
Snow Depth 0.00 in    
Sea Level Pressure  
Sea Level Pressure 30.14 in    
Wind  
Wind Speed 5 mph (NE)    
Max Wind Speed 13 mph    
Max Gust Speed 17 mph    
Visibility 10 miles    
Events      
T = Trace of Precipitation, MM = Missing Value Source: NWS Daily Summary

Daily Weather History Graph

Daily Weather History Graph

Search for Another Location

Airport or City:

Trip Planner

Search our weather history database for the weather conditions in past years. The results will help you decide how hot, cold, wet, or windy it might be!

Date:

Astronomy

Dec. 29, 2010 Rise Set
Actual Time 7:06 AM EST 5:38 PM EST
Civil Twilight 6:41 AM EST 6:03 PM EST
Nautical Twilight 6:12 AM EST 6:32 PM EST
Astronomical Twilight 5:44 AM EST 7:00 PM EST
Moon 1:29 AM EST (12/29) 12:55 PM EST (12/29)
Length of Visible Light 11h 22m
Length of Day
10h 31m
Waning Crescent, 33% of the Moon is Illuminated
Dec 29
Waning Crescent
Jan 4
New
Jan 12
First Quarter
Jan 19
Full
Jan 26
Last Quarter

Hourly Weather History & Observations

Time (EST) Temp. Dew Point Humidity Pressure Visibility Wind Dir Wind Speed Gust Speed Precip Events Conditions
12:53 AM 48.9 °F 33.1 °F 54% 30.20 in 10.0 mi NW 4.6 mph - N/A   Partly Cloudy
1:53 AM 48.0 °F 32.0 °F 54% 30.19 in 10.0 mi NNW 4.6 mph - N/A   Partly Cloudy
2:53 AM 48.9 °F 30.9 °F 50% 30.17 in 10.0 mi NNW 3.5 mph - N/A   Partly Cloudy
3:53 AM 48.9 °F 28.9 °F 46% 30.17 in 10.0 mi NNW 3.5 mph - N/A   Partly Cloudy
4:53 AM 48.0 °F 30.0 °F 50% 30.17 in 10.0 mi NNW 5.8 mph - N/A   Partly Cloudy
5:53 AM 48.0 °F 30.0 °F 50% 30.17 in 10.0 mi NNW 3.5 mph - N/A   Partly Cloudy
6:53 AM 48.0 °F 28.9 °F 48% 30.18 in 10.0 mi NW 3.5 mph - N/A   Partly Cloudy
7:53 AM 50.0 °F 28.9 °F 44% 30.19 in 8.0 mi NNW 3.5 mph - N/A   Partly Cloudy
8:53 AM 57.0 °F 34.0 °F 42% 30.20 in 8.0 mi North 5.8 mph - N/A   Partly Cloudy
9:53 AM 62.1 °F 39.0 °F 43% 30.21 in 8.0 mi NNW 6.9 mph - N/A   Partly Cloudy
10:53 AM 66.0 °F 44.1 °F 45% 30.19 in 8.0 mi North 5.8 mph - N/A   Partly Cloudy
11:53 AM 68.0 °F 48.0 °F 49% 30.17 in 10.0 mi East 8.1 mph - N/A   Partly Cloudy
12:53 PM 68.0 °F 48.9 °F 50% 30.12 in 10.0 mi ENE 9.2 mph - N/A   Partly Cloudy
1:53 PM 66.9 °F 48.0 °F 51% 30.09 in 10.0 mi East 9.2 mph - N/A   Mostly Cloudy
2:53 PM 66.9 °F 48.9 °F 52% 30.08 in 10.0 mi East 6.9 mph - N/A   Mostly Cloudy
3:53 PM 68.0 °F 46.9 °F 47% 30.07 in 10.0 mi SE 8.1 mph - N/A   Mostly Cloudy
4:53 PM 66.0 °F 46.9 °F 50% 30.09 in 10.0 mi SSE 3.5 mph - N/A   Mostly Cloudy
5:53 PM 66.0 °F 46.9 °F 50% 30.10 in 10.0 mi Calm Calm - N/A   Mostly Cloudy
6:53 PM 66.0 °F 48.0 °F 52% 30.11 in 10.0 mi SE 4.6 mph - N/A   Mostly Cloudy
7:53 PM 66.0 °F 46.9 °F 50% 30.12 in 10.0 mi Calm Calm - N/A   Mostly Cloudy
8:53 PM 64.9 °F 46.9 °F 52% 30.12 in 10.0 mi ESE 5.8 mph - N/A   Mostly Cloudy
9:53 PM 66.0 °F 48.0 °F 52% 30.12 in 10.0 mi SE 6.9 mph - N/A   Mostly Cloudy
10:53 PM 66.0 °F 51.1 °F 59% 30.12 in 10.0 mi SE 5.8 mph - N/A   Mostly Cloudy
11:53 PM 66.0 °F 52.0 °F 60% 30.11 in 10.0 mi SE 8.1 mph - N/A   Mostly Cloudy